Newport, RI

1:04 AM EDT on June 23, 2017 (GMT -0400)
Newport State

Weather History for KUUU - August, 2014

Change the Weather History Date:

Sunday, August 10, 2014

  Actual Average Record
Temperature  
Mean Temperature 72 °F -  
Max Temperature 84 °F 79 °F 89 °F (1980)
Min Temperature 63 °F 65 °F 49 °F (1964)
Cooling Degree Days 8    
Growing Degree Days 22 (Base 50)    
Moisture  
Dew Point 61 °F    
Average Humidity 74    
Maximum Humidity 96    
Minimum Humidity 44    
Precipitation  
Precipitation 0.00 in - - ()
Sea Level Pressure  
Sea Level Pressure 30.10 in    
Wind  
Wind Speed 3 mph (SE)    
Max Wind Speed 9 mph    
Max Gust Speed -    
Visibility 8 miles    
Events Fog    
Averages and records for this station are not official NWS values.
T = Trace of Precipitation, MM = Missing Value Source: NWS Daily Summary

Daily Weather History Graph

Daily Weather History Graph

Search for Another Location

Airport or City:

Trip Planner

Search our weather history database for the weather conditions in past years. The results will help you decide how hot, cold, wet, or windy it might be!

Date:

Astronomy

Aug. 10, 2014 Rise Set
Actual Time 5:48 AM EDT 7:51 PM EDT
Civil Twilight 5:18 AM EDT 8:21 PM EDT
Nautical Twilight 4:41 AM EDT 8:58 PM EDT
Astronomical Twilight 4:00 AM EDT 9:38 PM EDT
Moon 7:34 PM EDT (8/10) 5:37 AM EDT (8/10)
Length of Visible Light 15h 03m
Length of Day
14h 02m
Full, 100% of the Moon is Illuminated
Aug 10
Full
Aug 10
Full
Aug 17
Last Quarter
Aug 25
New
Sep 2
First Quarter

Hourly Weather History & Observations

Time (EDT) Temp. Heat Index Dew Point Humidity Pressure Visibility Wind Dir Wind Speed Gust Speed Precip Events Conditions
12:53 AM 68.0 °F - 64.0 °F 87% 30.09 in 10.0 mi SSW 3.5 mph - N/A   Clear
1:53 AM 66.9 °F - 63.0 °F 87% 30.08 in 10.0 mi Calm Calm - N/A   Clear
2:53 AM 64.9 °F - 62.1 °F 90% 30.08 in 10.0 mi Calm Calm - N/A   Clear
3:19 AM 64.9 °F - 62.1 °F 90% 30.08 in 1.8 mi Calm Calm - N/A   Clear
3:30 AM 64.0 °F - 63.0 °F 96% 30.08 in 0.5 mi Calm Calm - N/A Fog Fog
3:45 AM 64.0 °F - 62.1 °F 93% 30.08 in 1.2 mi Calm Calm - N/A   Clear
3:53 AM 64.0 °F - 62.1 °F 93% 30.08 in 0.5 mi Calm Calm - N/A Fog Fog
4:04 AM 63.0 °F - 61.0 °F 93% 30.09 in 1.0 mi Calm Calm - N/A   Clear
4:08 AM 63.0 °F - 61.0 °F 93% 30.09 in 3.0 mi Calm Calm - N/A   Clear
5:53 AM 63.0 °F - 60.1 °F 90% 30.09 in 10.0 mi NNW 3.5 mph - N/A   Clear
6:53 AM 66.0 °F - 61.0 °F 84% 30.10 in 10.0 mi North 3.5 mph - N/A   Clear
8:53 AM 73.0 °F - 60.1 °F 64% 30.12 in 10.0 mi North 6.9 mph - N/A   Clear
10:53 AM 77.0 °F - 59.0 °F 54% 30.12 in 10.0 mi NNW 8.1 mph - N/A   Clear
11:53 AM 81.0 °F 81.9 °F 62.1 °F 52% 30.12 in 10.0 mi NW 5.8 mph - N/A   Clear
12:53 PM 82.9 °F 82.8 °F 59.0 °F 44% 30.11 in 10.0 mi NE 9.2 mph - N/A   Partly Cloudy
1:53 PM 82.0 °F 82.4 °F 60.1 °F 47% 30.10 in 10.0 mi ESE 8.1 mph - N/A   Partly Cloudy
2:53 PM 82.0 °F 82.0 °F 57.9 °F 44% 30.10 in 10.0 mi SE 9.2 mph - N/A   Clear
3:53 PM 81.0 °F 81.0 °F 57.0 °F 44% 30.10 in 10.0 mi SE 9.2 mph - N/A   Clear
4:53 PM 80.1 °F 80.9 °F 60.1 °F 50% 30.10 in 10.0 mi SSE 8.1 mph - N/A   Scattered Clouds
5:53 PM 75.0 °F - 62.1 °F 64% 30.10 in 10.0 mi SSE 8.1 mph - N/A   Clear
6:53 PM 73.9 °F - 64.0 °F 71% 30.11 in 10.0 mi South 9.2 mph - N/A   Partly Cloudy
7:53 PM 71.1 °F - 61.0 °F 70% 30.11 in 10.0 mi South 5.8 mph - N/A   Clear
8:53 PM 69.1 °F - 62.1 °F 78% 30.12 in 10.0 mi SSE 4.6 mph - N/A   Clear
9:53 PM 68.0 °F - 62.1 °F 81% 30.13 in 10.0 mi SE 4.6 mph - N/A   Clear
10:53 PM 66.9 °F - 62.1 °F 84% 30.14 in 10.0 mi SSE 4.6 mph - N/A   Clear
11:53 PM 66.0 °F - 62.1 °F 87% 30.14 in 10.0 mi Calm Calm - N/A   Clear